| time (UTC) | temp F | wind direction | speed MPH | gust MPH | rain 1hr in | rain 24hr in | rain mn in | humidity % | barometer mb |
| 20260508053019 | 33 | 68 | 3.0 | 3.0 | 0.00 | 0.00 | 0.00 | 90 | 1016.4 |
| 20260508052515 | 33 | 107 | 2.0 | 3.0 | 0.00 | 0.00 | 0.00 | 91 | 1016.6 |
| 20260508052012 | 33 | 72 | 2.0 | 3.0 | 0.00 | 0.00 | 0.00 | 91 | 1016.5 |
| 20260508051508 | 34 | 12 | 2.0 | 3.0 | 0.00 | 0.00 | 0.00 | 90 | 1016.7 |
| 20260508051003 | 34 | 55 | 1.0 | 5.0 | 0.00 | 0.00 | 0.00 | 90 | 1016.8 |
| 20260508050500 | 33 | 349 | 3.0 | 4.0 | 0.00 | 0.00 | 0.00 | 92 | 1016.6 |
| 20260508045956 | 33 | 122 | 2.0 | 3.0 | 0.00 | 0.00 | 0.00 | 92 | 1016.8 |
| 20260508045454 | 33 | 72 | 1.0 | 3.0 | 0.00 | 0.00 | 0.00 | 91 | 1016.7 |
| 20260508044951 | 34 | 218 | 0.0 | 4.0 | 0.00 | 0.00 | 0.00 | 90 | 1016.7 |
| 20260508044448 | 35 | 49 | 1.0 | 3.0 | 0.00 | 0.00 | 0.00 | 89 | 1016.4 |
| 20260508043943 | 35 | 27 | 2.0 | 4.0 | 0.00 | 0.00 | 0.00 | 88 | 1016.6 |
| 20260508043441 | 35 | 9 | 2.0 | 3.0 | 0.00 | 0.00 | 0.00 | 89 | 1016.5 |
| 20260508042937 | 34 | 352 | 1.0 | 4.0 | 0.00 | 0.00 | 0.00 | 90 | 1016.5 |
| 20260508042436 | 35 | 18 | 3.0 | 4.0 | 0.00 | 0.00 | 0.00 | 89 | 1016.4 |
| 20260508041932 | 35 | 40 | 3.0 | 3.0 | 0.00 | 0.00 | 0.00 | 89 | 1016.3 |
| 20260508041428 | 35 | 39 | 4.0 | 5.0 | 0.00 | 0.00 | 0.00 | 88 | 1016.3 |
| 20260508040925 | 35 | 76 | 0.0 | 3.0 | 0.00 | 0.00 | 0.00 | 88 | 1016.5 |
| 20260508040423 | 35 | 89 | 0.0 | 4.0 | 0.00 | 0.00 | 0.00 | 87 | 1016.5 |
| 20260508035920 | 35 | 55 | 2.0 | 3.0 | 0.00 | 0.00 | 0.00 | 88 | 1016.3 |
| 20260508035417 | 36 | 339 | 0.0 | 3.0 | 0.00 | 0.00 | 0.00 | 88 | 1016.1 |
| 20260508034914 | 36 | 63 | 2.0 | 4.0 | 0.00 | 0.00 | 0.00 | 88 | 1016.3 |
| 20260508034411 | 37 | 83 | 3.0 | 4.0 | 0.00 | 0.00 | 0.00 | 86 | 1015.9 |
| 20260508033907 | 36 | 38 | 2.0 | 5.0 | 0.00 | 0.00 | 0.00 | 89 | 1016.0 |
| 20260508033406 | 36 | 358 | 2.0 | 3.0 | 0.00 | 0.00 | 0.00 | 89 | 1016.0 |
| 20260508032903 | 36 | 98 | 2.0 | 3.0 | 0.00 | 0.00 | 0.00 | 87 | 1016.0 |
| 20260508032400 | 36 | 332 | 2.0 | 4.0 | 0.00 | 0.00 | 0.00 | 88 | 1015.9 |
| 20260508031857 | 36 | 89 | 0.0 | 3.0 | 0.00 | 0.00 | 0.00 | 88 | 1015.8 |
| 20260508031354 | 37 | 331 | 3.0 | 4.0 | 0.00 | 0.00 | 0.00 | 87 | 1016.0 |
| 20260508030850 | 36 | 45 | 0.0 | 5.0 | 0.00 | 0.00 | 0.00 | 89 | 1015.8 |
| 20260508030347 | 37 | 68 | 2.0 | 4.0 | 0.00 | 0.00 | 0.00 | 87 | 1015.6 |
| 20260508025844 | 37 | 95 | 2.0 | 4.0 | 0.00 | 0.00 | 0.00 | 89 | 1015.7 |
| 20260508025341 | 36 | 355 | 2.0 | 3.0 | 0.00 | 0.00 | 0.00 | 89 | 1015.7 |
| 20260508024838 | 37 | 14 | 1.0 | 3.0 | 0.00 | 0.00 | 0.00 | 87 | 1015.5 |
| 20260508024334 | 37 | 82 | 1.0 | 4.0 | 0.00 | 0.00 | 0.00 | 87 | 1015.6 |
| 20260508023831 | 37 | 323 | 2.0 | 3.0 | 0.00 | 0.00 | 0.00 | 88 | 1015.4 |
| 20260508023328 | 37 | 28 | 3.0 | 5.0 | 0.00 | 0.00 | 0.00 | 87 | 1015.3 |
| 20260508022825 | 38 | 110 | 3.0 | 5.0 | 0.00 | 0.00 | 0.00 | 88 | 1015.3 |
| 20260508022321 | 38 | 116 | 2.0 | 4.0 | 0.00 | 0.00 | 0.00 | 87 | 1015.3 |
| 20260508021818 | 38 | 336 | 2.0 | 3.0 | 0.00 | 0.00 | 0.00 | 86 | 1015.3 |
| 20260508021313 | 38 | 49 | 1.0 | 2.0 | 0.00 | 0.00 | 0.00 | 87 | 1015.3 |
| 20260508020810 | 38 | 84 | 3.0 | 4.0 | 0.00 | 0.00 | 0.00 | 85 | 1015.3 |
| 20260508020308 | 39 | 54 | 0.0 | 5.0 | 0.00 | 0.00 | 0.00 | 86 | 1015.0 |
| 20260508015804 | 38 | 19 | 0.0 | 2.0 | 0.00 | 0.00 | 0.00 | 86 | 1015.0 |
| 20260508015305 | 38 | 3 | 1.0 | 3.0 | 0.00 | 0.00 | 0.00 | 87 | 1015.0 |
| 20260508014759 | 39 | 14 | 2.0 | 3.0 | 0.00 | 0.00 | 0.00 | 84 | 1014.9 |
| 20260508014256 | 40 | 56 | 2.0 | 3.0 | 0.00 | 0.00 | 0.00 | 83 | 1015.2 |
| 20260508013751 | 40 | 343 | 2.0 | 3.0 | 0.00 | 0.00 | 0.00 | 83 | 1015.0 |
| 20260508013248 | 41 | 76 | 1.0 | 3.0 | 0.00 | 0.00 | 0.00 | 81 | 1014.9 |
| 20260508012745 | 40 | 94 | 4.0 | 5.0 | 0.00 | 0.00 | 0.00 | 84 | 1015.0 |
| 20260508012242 | 40 | 3 | 3.0 | 3.0 | 0.00 | 0.00 | 0.00 | 85 | 1015.0 |
| 20260508011740 | 40 | 10 | 2.0 | 4.0 | 0.00 | 0.00 | 0.00 | 86 | 1014.9 |
| 20260508011237 | 40 | 109 | 0.0 | 4.0 | 0.00 | 0.00 | 0.00 | 84 | 1014.7 |
| 20260508010734 | 40 | 96 | 2.0 | 4.0 | 0.00 | 0.00 | 0.00 | 86 | 1014.5 |
| 20260508010233 | 40 | 74 | 1.0 | 3.0 | 0.00 | 0.00 | 0.00 | 83 | 1014.5 |
| 20260508005729 | 40 | 93 | 2.0 | 2.0 | 0.00 | 0.00 | 0.00 | 82 | 1014.4 |
| 20260508005226 | 41 | 98 | 2.0 | 3.0 | 0.00 | 0.00 | 0.00 | 81 | 1014.4 |
| 20260508004721 | 41 | 346 | 2.0 | 3.0 | 0.00 | 0.00 | 0.00 | 81 | 1014.5 |
| 20260508004218 | 42 | 23 | 1.0 | 5.0 | 0.00 | 0.00 | 0.00 | 80 | 1014.4 |
| 20260508003715 | 43 | 109 | 1.0 | 2.0 | 0.00 | 0.00 | 0.00 | 77 | 1014.3 |
| 20260508003212 | 43 | 113 | 1.0 | 4.0 | 0.00 | 0.00 | 0.00 | 76 | 1014.3 |
| 20260508002708 | 44 | 98 | 1.0 | 2.0 | 0.00 | 0.00 | 0.00 | 74 | 1014.4 |
| 20260508002206 | 44 | 126 | 1.0 | 3.0 | 0.00 | 0.00 | 0.00 | 75 | 1014.0 |
| 20260508001701 | 45 | 56 | 1.0 | 2.0 | 0.00 | 0.00 | 0.00 | 71 | 1014.3 |
| 20260508001157 | 47 | 75 | 1.0 | 5.0 | 0.00 | 0.00 | 0.00 | 65 | 1014.1 |
| 20260508000654 | 46 | 136 | 3.0 | 6.0 | 0.00 | 0.00 | 0.00 | 63 | 1014.1 |
| 20260508000151 | 47 | 137 | 2.0 | 5.0 | 0.00 | 0.00 | 0.00 | 62 | 1014.3 |
| 20260507235647 | 47 | 158 | 4.0 | 7.0 | 0.00 | 0.00 | 0.00 | 57 | 1014.1 |
| 20260507235145 | 48 | 150 | 1.0 | 8.0 | 0.00 | 0.00 | 0.00 | 59 | 1013.8 |
| 20260507234642 | 49 | 126 | 7.0 | 7.0 | 0.00 | 0.00 | 0.00 | 58 | 1014.0 |
| 20260507234138 | 49 | 196 | 5.0 | 7.0 | 0.00 | 0.00 | 0.00 | 54 | 1013.7 |
| 20260507233635 | 48 | 141 | 6.0 | 6.0 | 0.00 | 0.00 | 0.00 | 63 | 1013.7 |
| 20260507233134 | 49 | 86 | 5.0 | 9.0 | 0.00 | 0.00 | 0.00 | 57 | 1013.5 |
| 20260507232629 | 49 | 118 | 0.0 | 5.0 | 0.00 | 0.00 | 0.00 | 59 | 1013.6 |
| 20260507232127 | 50 | 122 | 7.0 | 9.0 | 0.00 | 0.00 | 0.00 | 55 | 1013.3 |
| 20260507231623 | 50 | 144 | 5.0 | 6.0 | 0.00 | 0.00 | 0.00 | 55 | 1013.4 |
| 20260507231121 | 50 | 105 | 5.0 | 8.0 | 0.00 | 0.00 | 0.00 | 54 | 1013.3 |
| 20260507230616 | 50 | 182 | 2.0 | 6.0 | 0.00 | 0.00 | 0.00 | 55 | 1013.4 |
| 20260507230114 | 51 | 148 | 4.0 | 9.0 | 0.00 | 0.00 | 0.00 | 53 | 1013.4 |
| 20260507225608 | 51 | 153 | 5.0 | 7.0 | 0.00 | 0.00 | 0.00 | 53 | 1013.4 |
| 20260507225105 | 52 | 78 | 5.0 | 14.0 | 0.00 | 0.00 | 0.00 | 50 | 1013.3 |
| 20260507224601 | 52 | 87 | 4.0 | 13.0 | 0.00 | 0.00 | 0.00 | 51 | 1013.3 |
| 20260507224058 | 52 | 193 | 4.0 | 9.0 | 0.00 | 0.00 | 0.00 | 52 | 1013.0 |
| 20260507223554 | 53 | 119 | 3.0 | 18.0 | 0.00 | 0.00 | 0.00 | 50 | 1013.2 |
| 20260507223051 | 53 | 18 | 6.0 | 11.0 | 0.00 | 0.00 | 0.00 | 51 | 1012.9 |
| 20260507222548 | 54 | 161 | 1.0 | 12.0 | 0.00 | 0.00 | 0.00 | 52 | 1013.0 |
| 20260507222044 | 53 | 197 | 6.0 | 15.0 | 0.00 | 0.00 | 0.00 | 50 | 1012.9 |
| 20260507221540 | 54 | 84 | 4.0 | 12.0 | 0.00 | 0.00 | 0.00 | 50 | 1013.0 |
| 20260507221038 | 53 | 355 | 11.0 | 21.0 | 0.00 | 0.00 | 0.00 | 52 | 1013.1 |
| 20260507220535 | 53 | 97 | 7.0 | 11.0 | 0.00 | 0.00 | 0.00 | 51 | 1012.6 |
| 20260507220032 | 54 | 0 | 7.0 | 13.0 | 0.00 | 0.00 | 0.00 | 50 | 1012.5 |
| 20260507215528 | 54 | 184 | 1.0 | 7.0 | 0.00 | 0.00 | 0.00 | 52 | 1012.5 |
| 20260507215027 | 52 | 83 | 8.0 | 14.0 | 0.00 | 0.00 | 0.00 | 53 | 1012.9 |
| 20260507214523 | 52 | 122 | 5.0 | 17.0 | 0.00 | 0.00 | 0.00 | 55 | 1012.6 |
| 20260507214019 | 53 | 226 | 3.0 | 13.0 | 0.00 | 0.00 | 0.00 | 54 | 1012.4 |
| 20260507213516 | 52 | 86 | 6.0 | 12.0 | 0.00 | 0.00 | 0.00 | 55 | 1012.5 |
| 20260507213013 | 54 | 83 | 8.0 | 20.0 | 0.00 | 0.00 | 0.00 | 52 | 1012.5 |
| 20260507212508 | 57 | 335 | 6.0 | 9.0 | 0.00 | 0.00 | 0.00 | 47 | 1012.2 |
| 20260507212005 | 56 | 182 | 3.0 | 9.0 | 0.00 | 0.00 | 0.00 | 51 | 1012.4 |
| 20260507211502 | 57 | 191 | 5.0 | 10.0 | 0.00 | 0.00 | 0.00 | 48 | 1012.3 |
| 20260507210958 | 57 | 76 | 0.0 | 6.0 | 0.00 | 0.00 | 0.00 | 53 | 1012.3 |
| 20260507210455 | 54 | 350 | 3.0 | 15.0 | 0.00 | 0.00 | 0.00 | 52 | 1012.2 |
| 20260507205952 | 54 | 47 | 3.0 | 13.0 | 0.00 | 0.00 | 0.00 | 52 | 1012.3 |
| 20260507205449 | 54 | 158 | 4.0 | 18.0 | 0.00 | 0.00 | 0.00 | 52 | 1012.4 |
| 20260507204945 | 54 | 15 | 4.0 | 16.0 | 0.00 | 0.00 | 0.00 | 55 | 1012.3 |
| 20260507204442 | 54 | 219 | 5.0 | 12.0 | 0.00 | 0.00 | 0.00 | 56 | 1012.2 |
| 20260507203940 | 54 | 154 | 3.0 | 8.0 | 0.00 | 0.00 | 0.00 | 53 | 1012.1 |
| 20260507203437 | 54 | 348 | 6.0 | 13.0 | 0.00 | 0.00 | 0.00 | 55 | 1012.4 |
| 20260507202934 | 56 | 57 | 7.0 | 10.0 | 0.00 | 0.00 | 0.00 | 51 | 1012.3 |
| 20260507202430 | 56 | 223 | 2.0 | 8.0 | 0.00 | 0.00 | 0.00 | 52 | 1012.3 |
| 20260507201926 | 53 | 29 | 9.0 | 16.0 | 0.00 | 0.00 | 0.00 | 54 | 1012.4 |
| 20260507201421 | 52 | 312 | 4.0 | 13.0 | 0.00 | 0.00 | 0.00 | 55 | 1012.4 |
| 20260507200919 | 54 | 355 | 12.0 | 16.0 | 0.00 | 0.00 | 0.00 | 54 | 1012.4 |
| 20260507200414 | 54 | 29 | 6.0 | 24.0 | 0.00 | 0.00 | 0.00 | 54 | 1012.4 |
| 20260507195910 | 53 | 92 | 10.0 | 20.0 | 0.00 | 0.00 | 0.00 | 56 | 1012.3 |
| 20260507195408 | 55 | 59 | 4.0 | 14.0 | 0.00 | 0.00 | 0.00 | 55 | 1012.2 |
| 20260507194905 | 56 | 113 | 7.0 | 15.0 | 0.00 | 0.00 | 0.00 | 51 | 1012.1 |
| 20260507194401 | 55 | 28 | 6.0 | 17.0 | 0.00 | 0.00 | 0.00 | 53 | 1012.2 |
| 20260507193857 | 57 | 142 | 28.0 | 28.0 | 0.00 | 0.00 | 0.00 | 50 | 1012.3 |
| 20260507193355 | 59 | 171 | 5.0 | 9.0 | 0.00 | 0.00 | 0.00 | 47 | 1012.4 |
| 20260507192851 | 54 | 350 | 3.0 | 20.0 | 0.00 | 0.00 | 0.00 | 52 | 1012.4 |
| 20260507192347 | 55 | 84 | 10.0 | 24.0 | 0.00 | 0.00 | 0.00 | 55 | 1012.7 |
| 20260507191844 | 54 | 64 | 8.0 | 12.0 | 0.00 | 0.00 | 0.00 | 54 | 1012.5 |
| 20260507191340 | 57 | 41 | 5.0 | 9.0 | 0.00 | 0.00 | 0.00 | 54 | 1012.5 |
| 20260507190837 | 57 | 50 | 9.0 | 11.0 | 0.00 | 0.00 | 0.00 | 52 | 1012.6 |
| 20260507190335 | 57 | 192 | 11.0 | 24.0 | 0.00 | 0.00 | 0.00 | 54 | 1012.3 |
| 20260507185834 | 57 | 189 | 7.0 | 13.0 | 0.00 | 0.00 | 0.00 | 50 | 1012.3 |
| 20260507185330 | 54 | 83 | 10.0 | 12.0 | 0.00 | 0.00 | 0.00 | 55 | 1012.7 |
| 20260507184828 | 53 | 187 | 2.0 | 16.0 | 0.00 | 0.00 | 0.00 | 59 | 1012.6 |
| 20260507184326 | 57 | 310 | 4.0 | 6.0 | 0.00 | 0.00 | 0.00 | 59 | 1012.4 |
| 20260507183822 | 59 | 205 | 7.0 | 8.0 | 0.00 | 0.00 | 0.00 | 50 | 1012.5 |
| 20260507183319 | 59 | 215 | 5.0 | 9.0 | 0.00 | 0.00 | 0.00 | 51 | 1012.7 |
| 20260507182817 | 54 | 94 | 4.0 | 7.0 | 0.00 | 0.00 | 0.00 | 59 | 1012.7 |
| 20260507182312 | 58 | 318 | 4.0 | 7.0 | 0.00 | 0.00 | 0.00 | 56 | 1012.7 |
| 20260507181809 | 56 | 321 | 9.0 | 17.0 | 0.00 | 0.00 | 0.00 | 55 | 1012.5 |
| 20260507181305 | 59 | 199 | 5.0 | 10.0 | 0.00 | 0.00 | 0.00 | 57 | 1012.7 |
| 20260507180801 | 58 | 201 | 3.0 | 14.0 | 0.00 | 0.00 | 0.00 | 55 | 1012.7 |
| 20260507180259 | 57 | 166 | 4.0 | 17.0 | 0.00 | 0.00 | 0.00 | 58 | 1012.4 |
| 20260507175754 | 57 | 155 | 4.0 | 14.0 | 0.00 | 0.00 | 0.00 | 59 | 1012.7 |
| 20260507175251 | 56 | 246 | 7.0 | 14.0 | 0.00 | 0.00 | 0.00 | 57 | 1012.9 |
| 20260507174748 | 54 | 88 | 2.0 | 5.0 | 0.00 | 0.00 | 0.00 | 61 | 1012.9 |
| 20260507174246 | 52 | 28 | 2.0 | 15.0 | 0.00 | 0.00 | 0.00 | 63 | 1013.1 |
| 20260507173744 | 51 | 94 | 5.0 | 16.0 | 0.00 | 0.00 | 0.00 | 65 | 1013.0 |
| 20260507173241 | 58 | 71 | 15.0 | 15.0 | 0.00 | 0.00 | 0.00 | 60 | 1013.1 |
| 20260507172737 | 53 | 119 | 8.0 | 19.0 | 0.00 | 0.00 | 0.00 | 63 | 1013.2 |
| 20260507172234 | 53 | 333 | 2.0 | 11.0 | 0.00 | 0.00 | 0.00 | 68 | 1013.2 |
| 20260507171734 | 53 | 180 | 12.0 | 12.0 | 0.00 | 0.00 | 0.00 | 64 | 1013.2 |
| 20260507171232 | 51 | 17 | 7.0 | 13.0 | 0.00 | 0.00 | 0.00 | 67 | 1013.3 |
| 20260507170729 | 52 | 347 | 5.0 | 14.0 | 0.00 | 0.00 | 0.00 | 68 | 1013.4 |
| 20260507170225 | 51 | 328 | 3.0 | 9.0 | 0.00 | 0.00 | 0.00 | 68 | 1013.2 |
| 20260507165721 | 51 | 332 | 3.0 | 14.0 | 0.00 | 0.00 | 0.00 | 71 | 1013.4 |
| 20260507165217 | 52 | 347 | 5.0 | 11.0 | 0.00 | 0.00 | 0.00 | 65 | 1013.3 |
| 20260507164713 | 52 | 142 | 1.0 | 6.0 | 0.00 | 0.00 | 0.00 | 66 | 1013.7 |
| 20260507164211 | 57 | 55 | 4.0 | 11.0 | 0.00 | 0.00 | 0.00 | 61 | 1013.5 |
| 20260507163708 | 51 | 329 | 4.0 | 18.0 | 0.00 | 0.00 | 0.00 | 69 | 1013.7 |
| 20260507163206 | 51 | 6 | 7.0 | 19.0 | 0.00 | 0.00 | 0.00 | 68 | 1013.8 |
| 20260507162702 | 54 | 181 | 3.0 | 11.0 | 0.00 | 0.00 | 0.00 | 63 | 1013.5 |
| 20260507162158 | 50 | 159 | 3.0 | 18.0 | 0.00 | 0.00 | 0.00 | 75 | 1014.1 |
| 20260507161654 | 51 | 132 | 5.0 | 10.0 | 0.00 | 0.00 | 0.00 | 69 | 1014.1 |
| 20260507161150 | 52 | 154 | 2.0 | 15.0 | 0.00 | 0.00 | 0.00 | 70 | 1014.1 |
| 20260507160647 | 53 | 100 | 3.0 | 11.0 | 0.00 | 0.00 | 0.00 | 70 | 1014.0 |
| 20260507160144 | 53 | 44 | 2.0 | 6.0 | 0.00 | 0.00 | 0.00 | 73 | 1014.1 |
| 20260507155639 | 51 | 132 | 3.0 | 11.0 | 0.00 | 0.00 | 0.00 | 69 | 1014.3 |
| 20260507155136 | 51 | 346 | 12.0 | 16.0 | 0.00 | 0.00 | 0.00 | 71 | 1014.5 |
| 20260507154633 | 52 | 105 | 4.0 | 9.0 | 0.00 | 0.00 | 0.00 | 69 | 1014.2 |
| 20260507154130 | 53 | 176 | 1.0 | 7.0 | 0.00 | 0.00 | 0.00 | 68 | 1014.2 |
| 20260507153621 | 50 | 156 | 6.0 | 7.0 | 0.00 | 0.00 | 0.00 | 73 | 1014.3 |
| 20260507153117 | 47 | 45 | 3.0 | 14.0 | 0.00 | 0.00 | 0.00 | 79 | 1014.0 |
| 20260507152613 | 47 | 36 | 5.0 | 15.0 | 0.00 | 0.00 | 0.00 | 79 | 1014.4 |
| 20260507152109 | 47 | 86 | 6.0 | 9.0 | 0.00 | 0.00 | 0.00 | 78 | 1014.2 |
| 20260507151605 | 47 | 78 | 6.0 | 9.0 | 0.00 | 0.00 | 0.00 | 78 | 1014.1 |
| 20260507151103 | 48 | 107 | 15.0 | 15.0 | 0.00 | 0.00 | 0.00 | 76 | 1014.3 |
| 20260507150600 | 47 | 65 | 3.0 | 8.0 | 0.00 | 0.00 | 0.00 | 76 | 1014.5 |
| 20260507150057 | 48 | 79 | 4.0 | 7.0 | 0.00 | 0.00 | 0.00 | 76 | 1014.5 |
| 20260507145552 | 48 | 150 | 4.0 | 7.0 | 0.00 | 0.00 | 0.00 | 75 | 1014.3 |
| 20260507145050 | 49 | 3 | 3.0 | 5.0 | 0.00 | 0.00 | 0.00 | 73 | 1014.6 |
| 20260507144546 | 48 | 161 | 4.0 | 6.0 | 0.00 | 0.00 | 0.00 | 73 | 1014.5 |
| 20260507144044 | 48 | 153 | 10.0 | 10.0 | 0.00 | 0.00 | 0.00 | 73 | 1014.5 |
| 20260507143540 | 47 | 42 | 3.0 | 5.0 | 0.00 | 0.00 | 0.00 | 75 | 1014.3 |
| 20260507143038 | 46 | 58 | 2.0 | 5.0 | 0.00 | 0.00 | 0.00 | 76 | 1014.4 |
| 20260507142533 | 46 | 298 | 1.0 | 3.0 | 0.00 | 0.00 | 0.00 | 75 | 1014.7 |
| 20260507142031 | 46 | 140 | 2.0 | 4.0 | 0.00 | 0.00 | 0.00 | 74 | 1014.7 |
| 20260507141527 | 45 | 323 | 3.0 | 4.0 | 0.00 | 0.00 | 0.00 | 77 | 1014.9 |
| 20260507141024 | 45 | 55 | 3.0 | 7.0 | 0.00 | 0.00 | 0.00 | 77 | 1014.9 |
| 20260507140521 | 48 | 308 | 0.0 | 4.0 | 0.00 | 0.00 | 0.00 | 77 | 1014.9 |
| 20260507140018 | 46 | 330 | 2.0 | 3.0 | 0.00 | 0.00 | 0.00 | 77 | 1015.0 |
| 20260507135515 | 45 | 86 | 0.0 | 7.0 | 0.00 | 0.00 | 0.00 | 78 | 1015.3 |
| 20260507135012 | 46 | 151 | 3.0 | 5.0 | 0.00 | 0.00 | 0.00 | 78 | 1015.3 |
| 20260507134508 | 45 | 122 | 5.0 | 8.0 | 0.00 | 0.00 | 0.00 | 78 | 1015.0 |
| 20260507134004 | 44 | 94 | 4.0 | 8.0 | 0.00 | 0.00 | 0.00 | 77 | 1014.9 |
| 20260507133500 | 44 | 36 | 8.0 | 11.0 | 0.00 | 0.00 | 0.00 | 77 | 1014.8 |
| 20260507132959 | 44 | 141 | 7.0 | 8.0 | 0.00 | 0.00 | 0.00 | 78 | 1015.2 |
| 20260507132455 | 44 | 122 | 6.0 | 9.0 | 0.00 | 0.00 | 0.00 | 79 | 1015.0 |
| 20260507131951 | 44 | 76 | 3.0 | 10.0 | 0.00 | 0.00 | 0.00 | 80 | 1015.0 |
| 20260507131448 | 44 | 171 | 4.0 | 5.0 | 0.00 | 0.00 | 0.00 | 80 | 1015.2 |
| 20260507130945 | 44 | 68 | 5.0 | 5.0 | 0.00 | 0.00 | 0.00 | 80 | 1015.3 |
| 20260507130442 | 44 | 127 | 1.0 | 6.0 | 0.00 | 0.00 | 0.00 | 80 | 1015.2 |
| 20260507125941 | 43 | 171 | 3.0 | 7.0 | 0.00 | 0.00 | 0.00 | 77 | 1015.3 |
| 20260507125439 | 43 | 80 | 4.0 | 9.0 | 0.00 | 0.00 | 0.00 | 77 | 1015.2 |
| 20260507124936 | 44 | 199 | 0.0 | 5.0 | 0.00 | 0.00 | 0.00 | 80 | 1015.4 |
| 20260507124432 | 44 | 48 | 2.0 | 4.0 | 0.00 | 0.00 | 0.00 | 85 | 1015.4 |
| 20260507123930 | 43 | 170 | 2.0 | 7.0 | 0.00 | 0.00 | 0.00 | 83 | 1015.3 |
| 20260507123427 | 43 | 47 | 1.0 | 6.0 | 0.00 | 0.00 | 0.00 | 86 | 1015.3 |
| 20260507122923 | 43 | 2 | 1.0 | 5.0 | 0.00 | 0.00 | 0.00 | 91 | 1015.2 |
| 20260507122419 | 43 | 86 | 4.0 | 12.0 | 0.00 | 0.00 | 0.00 | 91 | 1014.9 |
| 20260507121915 | 43 | 76 | 9.0 | 11.0 | 0.00 | 0.00 | 0.00 | 91 | 1015.2 |
| 20260507121410 | 43 | 93 | 5.0 | 8.0 | 0.00 | 0.00 | 0.00 | 92 | 1015.2 |
| 20260507120908 | 43 | 350 | 7.0 | 9.0 | 0.00 | 0.00 | 0.00 | 92 | 1014.9 |
| 20260507120404 | 43 | 74 | 5.0 | 9.0 | 0.00 | 0.00 | 0.00 | 92 | 1014.9 |
| 20260507115900 | 44 | 78 | 9.0 | 9.0 | 0.00 | 0.00 | 0.00 | 93 | 1014.9 |
| 20260507115356 | 44 | 116 | 0.0 | 5.0 | 0.00 | 0.00 | 0.00 | 94 | 1015.2 |
| 20260507114852 | 44 | 67 | 4.0 | 6.0 | 0.00 | 0.00 | 0.00 | 94 | 1014.6 |
| 20260507114349 | 44 | 5 | 3.0 | 5.0 | 0.00 | 0.00 | 0.00 | 93 | 1015.0 |
| 20260507113846 | 44 | 3 | 2.0 | 3.0 | 0.00 | 0.00 | 0.00 | 94 | 1015.0 |
| 20260507113343 | 44 | 105 | 0.0 | 3.0 | 0.00 | 0.00 | 0.00 | 94 | 1014.9 |
| 20260507112841 | 44 | 41 | 2.0 | 6.0 | 0.00 | 0.00 | 0.00 | 93 | 1014.7 |
| 20260507112338 | 44 | 83 | 4.0 | 5.0 | 0.00 | 0.00 | 0.00 | 94 | 1015.0 |
| 20260507111836 | 44 | 131 | 1.0 | 3.0 | 0.00 | 0.00 | 0.00 | 95 | 1014.8 |
| 20260507111332 | 44 | 305 | 3.0 | 5.0 | 0.00 | 0.00 | 0.00 | 95 | 1014.6 |
| 20260507110828 | 44 | 347 | 3.0 | 4.0 | 0.00 | 0.00 | 0.00 | 96 | 1014.5 |
| 20260507110324 | 44 | 60 | 0.0 | 5.0 | 0.00 | 0.00 | 0.00 | 97 | 1014.7 |
| 20260507105821 | 45 | 89 | 0.0 | 2.0 | 0.00 | 0.00 | 0.00 | 96 | 1014.5 |
| 20260507105318 | 45 | 9 | 1.0 | 5.0 | 0.00 | 0.00 | 0.00 | 94 | 1014.4 |
| 20260507104815 | 45 | 81 | 2.0 | 6.0 | 0.00 | 0.00 | 0.00 | 94 | 1014.2 |
| 20260507104311 | 45 | 46 | 2.0 | 5.0 | 0.00 | 0.00 | 0.00 | 95 | 1014.2 |
| 20260507103807 | 45 | 58 | 4.0 | 8.0 | 0.00 | 0.00 | 0.00 | 93 | 1014.5 |
| 20260507103304 | 45 | 19 | 3.0 | 4.0 | 0.00 | 0.00 | 0.00 | 93 | 1014.1 |
| 20260507102801 | 46 | 117 | 2.0 | 4.0 | 0.00 | 0.00 | 0.00 | 92 | 1014.1 |
| 20260507102257 | 46 | 77 | 3.0 | 4.0 | 0.00 | 0.00 | 0.00 | 92 | 1014.2 |
| 20260507101754 | 46 | 104 | 1.0 | 3.0 | 0.00 | 0.00 | 0.00 | 93 | 1014.4 |
| 20260507101253 | 46 | 269 | 0.0 | 3.0 | 0.00 | 0.00 | 0.00 | 94 | 1014.2 |
| 20260507100751 | 45 | 38 | 0.0 | 3.0 | 0.00 | 0.00 | 0.00 | 95 | 1014.1 |
| 20260507100249 | 46 | 26 | 3.0 | 4.0 | 0.00 | 0.00 | 0.00 | 95 | 1014.1 |
| 20260507095747 | 46 | 355 | 2.0 | 3.0 | 0.00 | 0.00 | 0.00 | 94 | 1014.1 |
| 20260507095243 | 46 | 147 | 1.0 | 3.0 | 0.00 | 0.00 | 0.00 | 94 | 1014.1 |
| 20260507094740 | 46 | 113 | 3.0 | 3.0 | 0.00 | 0.00 | 0.00 | 93 | 1014.2 |
| 20260507094237 | 46 | 125 | 0.0 | 3.0 | 0.00 | 0.00 | 0.00 | 93 | 1014.2 |
| 20260507093734 | 46 | 174 | 2.0 | 3.0 | 0.00 | 0.00 | 0.00 | 93 | 1014.1 |
| 20260507093232 | 46 | 184 | 0.0 | 4.0 | 0.00 | 0.00 | 0.00 | 93 | 1014.1 |
| 20260507092730 | 46 | 135 | 0.0 | 3.0 | 0.00 | 0.00 | 0.00 | 94 | 1014.0 |
| 20260507092225 | 46 | 44 | 0.0 | 4.0 | 0.00 | 0.00 | 0.00 | 95 | 1014.1 |
| 20260507091722 | 46 | 320 | 3.0 | 3.0 | 0.00 | 0.00 | 0.00 | 94 | 1013.8 |
| 20260507091219 | 46 | 12 | 3.0 | 8.0 | 0.00 | 0.00 | 0.00 | 93 | 1013.8 |
| 20260507090714 | 46 | 344 | 4.0 | 7.0 | 0.00 | 0.00 | 0.00 | 93 | 1013.5 |
| 20260507090211 | 46 | 342 | 2.0 | 4.0 | 0.00 | 0.00 | 0.00 | 94 | 1013.6 |
| 20260507085708 | 46 | 93 | 0.0 | 4.0 | 0.00 | 0.00 | 0.00 | 95 | 1013.5 |
| 20260507085205 | 46 | 87 | 3.0 | 4.0 | 0.00 | 0.00 | 0.00 | 97 | 1013.7 |
| 20260507084702 | 46 | 89 | 2.0 | 3.0 | 0.00 | 0.00 | 0.00 | 97 | 1013.7 |
| 20260507084158 | 46 | 335 | 3.0 | 4.0 | 0.00 | 0.00 | 0.00 | 97 | 1013.7 |
| 20260507083655 | 46 | 94 | 0.0 | 3.0 | 0.00 | 0.00 | 0.00 | 98 | 1014.1 |
| 20260507083152 | 46 | 339 | 2.0 | 4.0 | 0.00 | 0.00 | 0.00 | 98 | 1014.1 |
| 20260507082648 | 46 | 80 | 1.0 | 4.0 | 0.00 | 0.00 | 0.00 | 97 | 1014.2 |
| 20260507082144 | 46 | 38 | 3.0 | 4.0 | 0.00 | 0.00 | 0.00 | 98 | 1014.0 |
| 20260507081641 | 46 | 328 | 0.0 | 5.0 | 0.00 | 0.00 | 0.00 | 98 | 1013.8 |
| 20260507081137 | 46 | 110 | 4.0 | 7.0 | 0.00 | 0.00 | 0.00 | 98 | 1013.8 |
| 20260507080634 | 46 | 0 | 4.0 | 5.0 | 0.00 | 0.00 | 0.00 | 98 | 1014.1 |
| 20260507080131 | 46 | 72 | 2.0 | 5.0 | 0.00 | 0.00 | 0.00 | 98 | 1013.8 |
| 20260507075631 | 46 | 25 | 3.0 | 4.0 | 0.00 | 0.00 | 0.00 | 98 | 1014.4 |
| 20260507075127 | 46 | 348 | 3.0 | 4.0 | 0.00 | 0.00 | 0.00 | 97 | 1014.1 |
| 20260507074624 | 46 | 347 | 3.0 | 5.0 | 0.00 | 0.00 | 0.00 | 97 | 1014.1 |
| 20260507074122 | 47 | 92 | 3.0 | 4.0 | 0.00 | 0.00 | 0.00 | 97 | 1014.2 |
| 20260507073618 | 47 | 33 | 3.0 | 5.0 | 0.00 | 0.00 | 0.00 | 97 | 1014.2 |
| 20260507073114 | 47 | 5 | 3.0 | 4.0 | 0.00 | 0.00 | 0.00 | 97 | 1014.3 |
| 20260507072613 | 47 | 358 | 3.0 | 4.0 | 0.00 | 0.00 | 0.00 | 97 | 1014.4 |
| 20260507072109 | 47 | 89 | 0.0 | 3.0 | 0.00 | 0.00 | 0.00 | 97 | 1014.3 |
| 20260507071607 | 47 | 138 | 0.0 | 5.0 | 0.00 | 0.00 | 0.00 | 96 | 1014.3 |
| 20260507071103 | 47 | 333 | 3.0 | 3.0 | 0.00 | 0.00 | 0.00 | 96 | 1014.2 |
| 20260507070600 | 48 | 73 | 3.0 | 3.0 | 0.00 | 0.00 | 0.00 | 96 | 1014.0 |
| 20260507070057 | 48 | 29 | 0.0 | 2.0 | 0.00 | 0.00 | 0.00 | 95 | 1014.1 |
| 20260507065553 | 48 | 343 | 1.0 | 3.0 | 0.00 | 0.00 | 0.00 | 95 | 1014.1 |
| 20260507065051 | 48 | 3 | 3.0 | 3.0 | 0.00 | 0.00 | 0.00 | 94 | 1014.0 |
| 20260507064549 | 48 | 64 | 3.0 | 7.0 | 0.00 | 0.00 | 0.00 | 94 | 1013.7 |
| 20260507064047 | 48 | 58 | 4.0 | 6.0 | 0.00 | 0.00 | 0.00 | 93 | 1014.3 |
| 20260507063544 | 48 | 95 | 0.0 | 2.0 | 0.00 | 0.00 | 0.00 | 93 | 1014.3 |
| 20260507063041 | 49 | 63 | 0.0 | 3.0 | 0.00 | 0.00 | 0.00 | 92 | 1014.3 |
| 20260507062537 | 48 | 55 | 2.0 | 7.0 | 0.00 | 0.00 | 0.00 | 92 | 1014.3 |
| 20260507062035 | 49 | 44 | 2.0 | 3.0 | 0.00 | 0.00 | 0.00 | 94 | 1014.3 |
| 20260507061533 | 49 | 1 | 0.0 | 3.0 | 0.00 | 0.00 | 0.00 | 93 | 1014.1 |
| 20260507061031 | 49 | 30 | 4.0 | 5.0 | 0.00 | 0.00 | 0.00 | 93 | 1014.2 |
| 20260507060528 | 49 | 116 | 1.0 | 3.0 | 0.00 | 0.00 | 0.00 | 93 | 1014.1 |
| 20260507060025 | 49 | 116 | 3.0 | 5.0 | 0.00 | 0.00 | 0.00 | 90 | 1014.4 |
| 20260507055525 | 48 | 114 | 5.0 | 10.0 | 0.00 | 0.00 | 0.00 | 93 | 1014.4 |
| 20260507055022 | 49 | 313 | 1.0 | 3.0 | 0.00 | 0.00 | 0.00 | 94 | 1014.5 |
| 20260507054518 | 49 | 122 | 3.0 | 3.0 | 0.00 | 0.00 | 0.00 | 92 | 1014.4 |
| 20260507054015 | 49 | 150 | 2.0 | 4.0 | 0.00 | 0.00 | 0.00 | 92 | 1014.3 |
| 20260507053513 | 49 | 115 | 2.0 | 5.0 | 0.00 | 0.00 | 0.00 | 92 | 1014.5 |